STARLINK-32454, 62142

Orbit data source: Space-Track

STARLINK-32454, 62142 is a payload satellite owned by SpaceX/Seattle (US) in LEO that was launched on Sat, 30 Nov 2024 UTC via an FALCON 9 launch vehicle from the Air Force Eastern Test Range (AFETR). Payload-class satellites include a variety of spacecraft equipped with specific instruments for various scientific and technological missions. These include communications satellites like Starlink; space stations such as the ISS; scientific satellites like the Hubble; Earth observation satellites from companies like Planet Labs, Umbra, and HawkEye 360; GPS; miniature CubeSats for education and research; and military/defense satellites.

Loading next visibility...
Identifier
62142, 2024-224D
Orbit
LEO
Country
Flag of USUS
Related business
Manufacturer
SpaceX/Seattle
Mission
Operational Commercial Communications
Bus & Motor
STARLINK V2M, Unknown motor
Mass
730 kg wet, ~700 kg dry
Launch date (UTC)
2024-11-30 (1 year ago)
Launch vehicle
FALCON 9
Launch site
Air Force Eastern Test Range (AFETR)
Object type
Payload
Rocket body
Debris
Shape & HBR
Box + 2 Pan, 17.7 m
Radar Cross Section
33.884 m², Large (>1 m²)

Expand to show TLE details & history
Last TLE update: 19 hours ago

TLE from 19 hours ago
0 STARLINK-32454
1 62142U 24224D   25348.82259276  .00027917  00000-0  10198-2 0  9999
2 62142  43.0002 284.9197 0000956 255.2134 104.8612 15.27592521 59418
Epoch: 2025-12-14T19:44Z
TLE epoch observation values (Epoch: 2025-12-14T19:44:32.014Z)
Latitude
Longitude
-94.94368°
Altitude
482.955 km
Speed
7.626 km/s
True Right ascension
18h 59m 40s
True Declination
0° 00' 00"
Sunlit
Object was in daylight at epoch
Visualization orbit readout
Latitude
Unknown
Longitude
Unknown
Altitude
Unknown
Speed
Unknown
Apparent Right ascension
Unknown
Apparent Declination
Unknown
Sunlit
N/A
Visualization observer readout
Local Sidereal Time
13:25:42
Azimuth
Unknown
Elevation
Unknown
Doppler factor
Unknown
Orbital elements
Apogee altitude
485.613 km
Perigee altitude
484.301 km
Semi-major axis
6,863.094 km
Eccentricity
0.0001
Inclination
43.0002°
RAAN
284.9197°
Arg. of periapsis
255.2134°
True anomaly
104.87179°
Mean anomaly
104.8612°
Eccentric anomaly
104.86649°
Mean motion
3.81736 °/min
Orbital period
94.31 mins
BSTAR
0.0010198
Loading maneuver chart data...
Computing Atmospheric mass density...
Loading historical data...
Loading historical data...
Loading historical data...
Loading historical data...
Loading historical data...
Loading historical data...
Loading historical data...

Documentation

Showing up to 5 results
|